Tracking 27380 objects as of 5-Jun-2023
HD Live streaming from Space Station
objects crossing your sky now

SCOUT G-1 DEB

Track SCOUT G-1 DEB now!
10-day predictions


NORAD ID: 19181
Int'l Code: 1988-033G
Perigee: 997.9 km
Apogee: 1,373.7 km
Inclination: 89.8 °
Period: 109.0 minutes
Semi major axis: 7556 km
RCS: 0.0549 m2 (small)
Launch date: April 26, 1988
Source: United States (US)
Launch site: AIR FORCE WESTERN TEST RANGE (AFWTR)

Note: This is SATELLITE DEBRIS
Your satellite tracking list
Your tracking list is empty




NASA's NSSDC Master Catalog

Two Line Element Set (TLE):
1 19181U 88033G   23153.67083277  .00000198  00000-0  39485-3 0  9996
2 19181  89.8498 294.6901 0248647 288.8051  80.4541 13.21588659690591
Source of the keplerian elements: AFSPC